FALCON 9 R/B (54248 NORAD) Tracking and Keplerian Element Data

This shows tracking and keplerian element data for the satellite.

Feedback or suggestion? Click here.




ElementValue
Catalog54248
NameFALCON 9 R/B
Epoch Orbit5
Epoch Day321.69714291
Epoch Year2022
RAAN126.3058
Inclination24.4961
Eccentricity0.8158893
Argument of Perigee181.5667
Mean Anonmoly171.2411
Mean Motion1.29381978
Decay Rate8.327E-05
L11 54248U 22153C 22321.69714291 .00008327 -85185-7 68658-3 0 9996
L22 54248 24.4961 126.3058 8158893 181.5667 171.2411 1.29381978 52



Live tracking and technical data element details for FALCON 9 R/B (NORAD 54248). FALCON 9 R/B can be tracked NOW for your location showing map with azimuth and elevation plus other details from your city location.







IsCatalogInMostPopularTable: catalog: 54248, numindb: 3
Update: records affected: 1



GetName: 54248 FALCON 9 R/B

Hit Count: updated at: Sun, 04 Dec 2022 22:40:48 GMT